Astoria, OR

2:15 AM PDT on April 28, 2017 (GMT -0700)
Astoria Regional

Weather History for KAST - March, 2014

Change the Weather History Date:

Monday, March 17, 2014

  Actual Average Record
Temperature  
Mean Temperature 46 °F 46 °F  
Max Temperature 50 °F 54 °F 67 °F (1956)
Min Temperature 42 °F 39 °F 28 °F (1906)
Degree Days  
Heating Degree Days 19 19  
Month to date heating degree days 275 328  
Since 1 July heating degree days 3704 3670  
Cooling Degree Days 0 0  
Month to date cooling degree days 0 0  
Year to date cooling degree days 0 0  
Moisture  
Dew Point 36 °F    
Average Humidity 70    
Maximum Humidity 89    
Minimum Humidity 50    
Precipitation  
Precipitation 0.01 in 0.24 in 2.10 in (1921)
Month to date precipitation 7.65 4.23  
Year to date precipitation 21.41 21.62  
Sea Level Pressure  
Sea Level Pressure 30.33 in    
Wind  
Wind Speed 12 mph (WNW)    
Max Wind Speed 23 mph    
Max Gust Speed 31 mph    
Visibility 9 miles    
Events Rain    
T = Trace of Precipitation, MM = Missing Value Source: NWS Daily Summary

Daily Weather History Graph

Daily Weather History Graph

Search for Another Location

Airport or City:

Trip Planner

Search our weather history database for the weather conditions in past years. The results will help you decide how hot, cold, wet, or windy it might be!

Date:

Astronomy

Mar. 17, 2014 Rise Set
Actual Time 7:24 AM PDT 7:24 PM PDT
Civil Twilight 6:54 AM PDT 7:54 PM PDT
Nautical Twilight 6:19 AM PDT 8:29 PM PDT
Astronomical Twilight 5:43 AM PDT 9:05 PM PDT
Moon 8:53 PM PDT (3/17) 7:38 AM PDT (3/17)
Length of Visible Light 12h 59m
Length of Day
12h 00m
Full, 99% of the Moon is Illuminated
Mar 17
Full
Mar 23
Last Quarter
Mar 30
New
Apr 7
First Quarter
Apr 15
Full

Hourly Weather History & Observations

Time (PDT) Temp. Windchill Dew Point Humidity Pressure Visibility Wind Dir Wind Speed Gust Speed Precip Events Conditions
12:13 AM 45.0 °F 37.6 °F 37.9 °F 76% 30.11 in 10.0 mi NW 17.3 mph 27.6 mph 0.00 in Rain Light Rain
12:55 AM 45.0 °F 37.4 °F 37.0 °F 74% 30.13 in 10.0 mi WNW 18.4 mph 24.2 mph 0.00 in   Clear
1:55 AM 45.0 °F 37.6 °F 36.0 °F 71% 30.16 in 10.0 mi WNW 17.3 mph 26.5 mph N/A   Scattered Clouds
2:55 AM 45.0 °F 38.5 °F 35.1 °F 68% 30.19 in 10.0 mi WNW 13.8 mph 27.6 mph N/A   Mostly Cloudy
3:55 AM 44.1 °F 36.2 °F 34.0 °F 68% 30.22 in 10.0 mi NW 18.4 mph 23.0 mph N/A   Mostly Cloudy
4:55 AM 44.1 °F 35.4 °F 34.0 °F 68% 30.24 in 10.0 mi NW 21.9 mph 28.8 mph N/A   Mostly Cloudy
5:55 AM 44.1 °F 35.9 °F 33.1 °F 65% 30.26 in 10.0 mi WNW 19.6 mph 27.6 mph N/A   Mostly Cloudy
6:55 AM 44.1 °F 37.4 °F 33.1 °F 65% 30.28 in 10.0 mi WNW 13.8 mph 23.0 mph N/A   Mostly Cloudy
7:55 AM 44.1 °F 37.4 °F 32.0 °F 63% 30.31 in 10.0 mi WNW 13.8 mph - N/A   Mostly Cloudy
8:55 AM 43.0 °F 37.7 °F 36.0 °F 76% 30.33 in 10.0 mi WNW 9.2 mph - 0.00 in Rain Light Rain
9:55 AM 46.9 °F - 36.0 °F 66% 30.35 in 10.0 mi NW 9.2 mph - 0.00 in   Mostly Cloudy
10:55 AM 46.9 °F - 30.9 °F 54% 30.38 in 10.0 mi NW 16.1 mph - N/A   Mostly Cloudy
11:55 AM 48.0 °F - 36.0 °F 63% 30.39 in 10.0 mi NNW 16.1 mph 25.3 mph N/A   Mostly Cloudy
12:55 PM 48.9 °F - 34.0 °F 56% 30.39 in 10.0 mi NW 12.7 mph - N/A   Partly Cloudy
1:55 PM 46.9 °F - 36.0 °F 66% 30.39 in 10.0 mi WNW 15.0 mph - N/A   Mostly Cloudy
2:55 PM 48.9 °F - 30.9 °F 50% 30.39 in 10.0 mi WNW 18.4 mph - N/A   Mostly Cloudy
3:55 PM 48.9 °F - 30.0 °F 48% 30.39 in 10.0 mi NW 19.6 mph 25.3 mph N/A   Partly Cloudy
4:55 PM 48.0 °F - 34.0 °F 58% 30.39 in 10.0 mi NW 15.0 mph 19.6 mph N/A   Overcast
5:55 PM 48.0 °F - 37.0 °F 66% 30.39 in 10.0 mi WNW 8.1 mph - 0.00 in   Overcast
6:55 PM 44.1 °F 38.1 °F 37.0 °F 76% 30.39 in 6.0 mi NW 11.5 mph - 0.00 in Rain Light Rain
7:55 PM 43.0 °F 40.3 °F 37.9 °F 82% 30.38 in 10.0 mi WSW 4.6 mph - 0.01 in   Partly Cloudy
8:55 PM 43.0 °F - 39.0 °F 86% 30.38 in 10.0 mi Calm Calm - N/A   Overcast
9:55 PM 44.1 °F 42.5 °F 39.9 °F 85% 30.38 in 10.0 mi SSW 3.5 mph - N/A   Overcast
10:37 PM 44.1 °F 42.5 °F 39.9 °F 85% 30.38 in 9.0 mi South 3.5 mph - N/A   Overcast
10:55 PM 44.1 °F 41.5 °F 41.0 °F 89% 30.38 in 6.0 mi SSE 4.6 mph - 0.00 in Rain Light Rain
11:01 PM 44.1 °F 42.5 °F 41.0 °F 89% 30.37 in 4.0 mi South 3.5 mph - 0.00 in Rain Light Rain
11:32 PM 44.1 °F 41.5 °F 41.0 °F 89% 30.37 in 8.0 mi SSE 4.6 mph - 0.00 in   Overcast
11:42 PM 44.1 °F 41.5 °F 41.0 °F 89% 30.37 in 6.0 mi SSE 4.6 mph - 0.00 in   Overcast
11:55 PM 44.1 °F 41.5 °F 41.0 °F 89% 30.37 in 4.0 mi SSE 4.6 mph - 0.00 in   Overcast